Погода в Лодейном

Россия / Архангельская область     61°15′21″N   41°22′28″E
В апреле 2022 года жителям России запретили посещать сайт meteo.paraplan.net по решению Генеральной прокуратуры. Аудитория сайта уменьшилась в 10 раз. Владельцы сайта не видят смысла в поддержке погодного сервера в таких условиях. Сайт будет закрыт в октябре.
темп.,
°C
ветер,
м/с
пор.,
м/с
влажн.,
%
обл.,
%
осадки,
мм/ч
давл.,
гПа
погр.,
м
4 октября, вт
вт400:00+9в41398100 0.8 1008572
03:00+11ююв4119346 0.9 1009828
06:00+7ююв311950 0.0 1012364
09:00+9юв311893 0.0 1013469
12:00+12ююв410787 0.0 1013856
15:00+13ююв5107514 0.0 10141122
18:00+10юв412845 0.0 1014584
21:00+9юв412935 0.0 1015511
5 октября, ср
ср500:00+8вюв3996100 0.0 1015345
03:00+8вюв3996100 0.0 1014489
06:00+9вюв4119498 0.1 1013484
09:00+9вюв41093100 0.3 1012596
12:00+8юв3796100 0.4 1012459
15:00+8юв2595100 1.1 1012332
18:00+8юв259697 0.0 1012306
21:00+7юв129795 0.1 101254
6 октября, чт
чт600:00+8зсз1298100 0.2 101274
03:00+7сз1297100 0.3 1012112
06:00+7зсз1298100 1.4 1012126
09:00+8з1395100 1.4 1012191
12:00+8ююз129284 0.1 1012180
15:00+10ююз357452 0.1 10111040
18:00+7ююз4108716 0.0 1010458
21:00+6ю41390100 0.0 1007519
7 октября, пт
пт700:00+7ююз51393100 0.9 1004829
03:00+8ююз51495100 1.6 1000923
06:00+7з7188120 1.4 10021275
09:00+8зюз5128671 1.4 1003866
12:00+9зюз4984100 0.1 10041057
15:00+10з5108193 0.4 10041146
18:00+8з5128596 0.1 1006713
21:00+7з51386100 0.1 1008863
8 октября, сб
сб800:00+8з61281100 0.0 10111109
03:00+6з311939 0.1 1012476
06:00+7зюз4987100 0.0 1013615
09:00+8зюз4880100 0.0 1013800
12:00+10юз4981100 0.0 1012737
15:00+9юз41087100 0.0 1012825
18:00+8ююз41185100 0.0 1011604
21:00+8ююз51291100 0.0 1009699